Regional Weather Roundup
Issued by NWS Newport/Morehead, NC

Current Version | Previous Version | Text Only | Print | Product List | Glossary On
Versions: 1 2 3 4 5 6 7 8 9 10 11 12 13 14 15 16 17 18 19 20 21 22 23 24 25 26 27 28 29 30 31 32 33 34 35 36 37 38 39 40 41 42 43 44 45 46 47 48 49 50
669 ASUS42 KMHX 121225 RWRMHX WEATHER ROUNDUP FOR EASTERN NORTH CAROLINA NATIONAL WEATHER SERVICE NEWPORT/MOREHEAD CITY NC 700 AM EST TUE DEC 12 2017 NOTE: "FAIR" INDICATES FEW OR NO CLOUDS BELOW 12,000 FEET WITH NO SIGNIFICANT WEATHER AND/OR OBSTRUCTIONS TO VISIBILITY NCZ015>017-031-032-045>047-102-103-121300- NORTH COAST CITY SKY/WX TMP DP RH WIND PRES REMARKS EDENTON CLEAR 43 37 81 S9 29.76F ELIZABETH CITY CLEAR 44 39 82 S12 29.74F KITTY HAWK SUNNY 44 37 77 S7 29.75F MANTEO PTCLDY 44 40 86 SW13 29.77F $$ NCZ045>047-081-094-103-104-121300- CENTRAL COAST CITY SKY/WX TMP DP RH WIND PRES REMARKS FRISCO CLEAR 57 45 64 SW17G26 29.80F $$ NCZ095-097-098-100-101-121300- SOUTHERN COAST CITY SKY/WX TMP DP RH WIND PRES REMARKS BEAUFORT CLEAR 55 44 66 SW16G25 29.81F CEDAR ISLAND NOT AVBL JACKSONVILLE CLEAR 47 39 74 SW7 29.81F PINEY ISLAND N/A N/A N/A N/A S8 29.80F WILMINGTON CLEAR 47 39 74 SW8 29.83S $$ NCZ011>013-027>030-043-044-078>080-089-090>093-098-121300- COASTAL PLAIN CITY SKY/WX TMP DP RH WIND PRES REMARKS AHOSKIE PTCLDY 38 33 82 SW3 29.73F CLINTON CLEAR 41 37 86 S5 29.77F ELIZABETHTOWN NOT AVBL GOLDSBORO PTCLDY 41 35 78 S7 29.75F GREENVILLE CLEAR 37 34 87 S7 29.78F HAVELOCK CLEAR 48 41 76 SW10 29.81F KENANSVILLE CLEAR 37 36 93 CALM 29.78F KINSTON CLEAR 41 36 81 S10 29.78F NEW BERN CLEAR 41 38 89 SW8 29.81S RICHLANDS CLEAR 39 37 92 S8 29.81F ROCKY MOUNT PTCLDY 38 35 89 SW6 29.76S WASHINGTON PTCLDY 40 35 81 S5 29.77F WHITEVILLE CLEAR 41 36 81 S5 29.80F $$ AMZ130-135-150-152-154-156-158-170-250-252-270-ANZ085-086-088-633-658-670-121300- MARINE OBSERVATIONS STATION/POSITION TIME TEMP WIND PRES WAVE SWELL AIR SEA DIR/SP/G HT/PER HT/PER (UTC) (F) (DEG/KT/KT) (MB) (FT/S) (FT/S) CHESAPEAKE LIGHT NOT AVBL 64 E VA BEACH 1150 54 60 230/ 21/ 25 1007.8 4/ 4 2/ 8 DUCK 1200 45 54 180/ 12/ 15 1006.7 2 E DUCK 1200 54 N/A 2/ 9 OREGON INLET 1200 50 46 190/ 14/ 16 1008.3 13E OREGON INLT 1148 57 N/A 3/ 3 2/ 8 HATTERAS CG 1200 57 54 230/ 16/ 22 1008.6 DIAMOND BUOY 1210 62 74 230/ 23/ 29 1009.4 CAPE LOOKOUT 1200 230/ 12/ 16 1009.8 BEAUFORT LAB 1200 56 52 230/ 6/ 14 1009.4 30 SE NEW RVR IN 1108 61 67 230/ 19/ 25 1010.2 30 SE NEW RVR IN 1200 67 N/A 6/ 6 27 SE WRIGHTSVLE 1108 60 65 240/ 23/ 31 1011.2 5 SE WRIGHTSVLE 1208 56 58 240/ 16/ 21 1009.6 225 S CAPE HAT 1150 69 75 230/ 19/ 23 1013.6 5/ 5 2/10 41 SE CHARLESTON 1200 73 250/ 21/ 25 1011.8 $$

USA.gov is the U.S. government's official web portal to all federal, state and local government web resources and services.